* Astronomy

Members Login
Username 
 
Password 
    Remember Me  
Post Info TOPIC: Asteroid 2011 AW55


L

Posts: 131433
Date:
Asteroid 2011 AW55
Permalink  
 


Orbital elements:
2011 AW55                                                Earth MOID = 0.1757 AU
Epoch 2012 Mar. 14.0 TT = JDT 2456000.5                 MPC
M 245.01129              (2000.0)            P               Q
n   0.84817041     Peri.  321.89382     -0.03039163     +0.95079963
a   1.1053012      Node   304.25270     -0.80084444     -0.20773513
e   0.5171632      Incl.   21.90106     -0.59810077     +0.22983948
P   1.16           H   20.7           G   0.15           U   4

MPEC 2011 - Y24



__________________


L

Posts: 131433
Date:
Permalink  
 

Orbital elements:
2011 AW55 Earth MOID = 0.1733 AU
Epoch 2011 Feb. 8.0 TT = JDT 2455600.5 MPC
M 265.08876 (2000.0) P Q
n 0.85167251 Peri. 321.75899 -0.03095044 +0.95290199
a 1.1022691 Node 304.43768 -0.80313712 -0.20338698
e 0.5106645 Incl. 21.45716 -0.59498978 +0.22497006
P 1.16 H 20.7 G 0.15 U 9

MPEC 2011 - B02


__________________
Page 1 of 1  sorted by
 
Quick Reply

Please log in to post quick replies.



Create your own FREE Forum
Report Abuse
Powered by ActiveBoard